Location: Molveno
(46.1500°N, 10.9667°E)
Time: 00:23:24
(UTC+00:00)

DELTA 2 R/B (1) - Pass Details

Date: 05 July 2020
Orbit: 790 x 803 km, 39.6° (Epoch: 11 August)

Event Time Altitude Azimuth Distance (km) Brightness Sun altitude
Rises 22:22:22 0° 248° (WSW) 3,287 6.7 -19.9°
Reaches altitude 10° 22:24:58 10° 241° (WSW) 2,360 5.9 -20.0°
Enters shadow 22:30:02 41° 176° (S) 1,141 3.9 -20.2°
Exits shadow 22:36:25 - 101° (E) 2,739 6.1 -20.4°
Sets 22:37:59 0° 97° (E) 3,302 6.6 -20.5°
